Volver al catálogo

ATLAS H R/B

ActivoLEO
NORAD 17998·ROCKET BODY·🇺🇸 United States

Lanzado May 15, 1987 desde Vandenberg Space Force Base

Loading…

Próximos Pases (próximas 24 horas)

TLE

ActualizadoSource: Space-Track

Época: Sep 14, 2026, 05:48 UTC

1 17998U 87043B   26257.24222853  .00000768  00000-0  28086-3 0  9994
2 17998  63.3224 358.0395 0697990 118.6718 248.6305 13.51556004363292

Sigue ATLAS H R/B en tiempo real con AllMySat

Download on the App Store